QPF
0.00 0.00 0.00 0.00 0.00 0.00 0.00 0.00 0.00 0.00 0.00 0.00 0.00 0.00 0.00 0.00 0.00 0.00 0.00 0.00 0.00 0.00 0.00 0.00 0.00 0.00 0.00 0.00 0.00 0.02 0.02 0.00 0.00 0.00 0.00 0.00 0.00 0.00 0.00 0.00 0.00 0.00 0.00 0.00 0.00
0.00 0.00 0.00 0.00 0.00 0.00 0.00 0.00 0.00 0.00 0.00 0.00 0.00 0.00 0.00 0.00 0.00 0.00 0.00 0.00 0.00 0.00 0.00 0.00 0.00 0.00 0.00 0.00 0.00 0.06 0.06 0.00 0.00 0.00 0.00 0.00 0.00 0.00 0.00 0.00 0.00 0.00 0.00 0.00 0.00
0.00 0.00 0.00 0.00 0.00 0.00 0.00 0.00 0.00 0.00 0.00 0.00 0.00 0.00 0.00 0.00 0.00 0.00 0.00 0.00 0.00 0.00 0.00 0.00 0.00 0.00 0.00 0.00 0.00 0.01 0.12 0.00 0.00 0.00 0.00 0.00 0.00 0.00 0.00 0.00 0.00 0.00 0.00 0.00 0.00
0.00 0.00 0.00 0.00 0.00 0.00 0.00 0.00 0.00 0.00 0.00 0.00 0.00 0.00 0.00 0.00 0.00 0.00 0.00 0.00 0.00 0.00 0.00 0.00 0.00 0.00 0.00 0.00 0.00 0.00 0.00 0.00 0.00 0.00 0.00 0.00 0.00 0.00 0.00 0.00 0.00 0.00 0.00 0.00 0.00
0.00 0.00 0.00 0.00 0.00 0.00 0.00 0.00 0.00 0.00 0.00 0.00 0.00 0.00 0.00 0.00 0.00 0.00 0.00 0.00 0.00 0.00 0.00 0.00 0.00 0.00 0.00 0.00 0.00 0.00 0.00 0.00 0.00 0.00 0.00 0.00 0.00 0.00 0.00 0.00 0.00 0.00 0.00 0.00 0.00
0.00 0.00 0.00 0.00 0.00 0.00 0.00 0.00 0.00 0.00 0.00 0.00 0.00 0.00 0.00 0.00 0.00 0.00 0.00 0.00 0.00 0.00 0.00 0.00 0.00 0.00 0.00 0.00 0.00 0.00 0.00 0.00 0.00 0.00 0.00 0.00 0.00 0.00 0.00 0.00 0.00 0.00 0.00 0.00 0.00
0.00 0.00 0.00 0.00 0.00 0.00 0.00 0.00 0.00 0.00 0.00 0.00 0.00 0.00 0.00 0.00 0.00 0.00 0.00 0.00 0.00 0.00 0.00 0.00 0.00 0.00 0.00 0.00 0.00 0.00 0.00 0.00 0.00 0.00 0.00 0.00 0.00 0.00 0.00 0.00 0.00 0.00 0.00 0.00 0.00
0.00 0.00 0.00 0.00 0.00 0.00 0.00 0.00 0.00 0.00 0.00 0.00 0.00 0.00 0.00 0.00 0.00 0.00 0.00 0.00 0.00 0.00 0.00 0.00 0.00 0.00 0.00 0.00 0.00 0.00 0.00 0.00 0.00 0.00 0.00 0.00 0.00 0.00 0.00 0.00 0.00 0.00 0.00 0.00 0.00
0.00 0.00 0.00 0.00 0.00 0.00 0.00 0.00 0.00 0.00 0.00 0.00 0.00 0.00 0.00 0.00 0.00 0.00 0.00 0.00 0.00 0.00 0.00 0.00 0.00 0.00 0.00 0.00 0.00 0.00 0.00 0.00 0.00 0.00 0.00 0.00 0.04 0.01 0.00 0.00 0.00 0.00 0.00 0.00 0.00
0.00 0.00 0.00 0.00 0.00 0.00 0.00 0.00 0.00 0.00 0.00 0.00 0.00 0.00 0.00 0.00 0.00 0.00 0.00 0.00 0.00 0.00 0.00 0.00 0.00 0.00 0.00 0.00 0.00 0.00 0.00 0.00 0.00 0.00 0.00 0.00 0.02 0.02 0.00 0.00 0.00 0.00 0.00 0.00 0.00
0.00 0.00 0.00 0.00 0.00 0.00 0.00 0.00 0.00 0.00 0.00 0.00 0.00 0.00 0.00 0.00 0.00 0.00 0.00 0.00 0.00 0.00 0.00 0.00 0.00 0.00 0.00 0.00 0.00 0.00 0.00 0.00 0.00 0.00 0.00 0.00 0.00 0.04 0.00 0.00 0.00 0.00 0.00 0.00 0.00
0.00 0.00 0.00 0.00 0.00 0.00 0.00 0.00 0.00 0.00 0.00 0.00 0.00 0.00 0.00 0.00 0.00 0.00 0.00 0.00 0.00 0.00 0.00 0.00 0.00 0.00 0.00 0.00 0.00 0.00 0.00 0.00 0.00 0.00 0.00 0.00 0.00 0.00 0.00 0.00 0.00 0.00 0.00 0.00 0.00
0.00 0.00 0.00 0.00 0.00 0.00 0.00 0.00 0.00 0.00 0.00 0.00 0.00 0.00 0.00 0.00 0.00 0.00 0.00 0.00 0.00 0.00 0.00 0.00 0.00 0.00 0.00 0.00 0.00 0.00 0.00 0.00 0.00 0.00 0.00 0.00 0.00 0.00 0.00 0.00 0.00 0.00 0.00 0.00 0.00
0.00 0.00 0.00 0.00 0.00 0.00 0.00 0.00 0.00 0.00 0.00 0.00 0.00 0.00 0.00 0.00 0.00 0.00 0.00 0.00 0.00 0.00 0.00 0.00 0.00 0.00 0.00 0.00 0.00 0.00 0.00 0.00 0.00 0.00 0.00 0.00 0.00 0.00 0.00 0.00 0.00 0.00 0.00 0.00 0.00
0.00 0.00 0.00 0.00 0.00 0.00 0.00 0.00 0.00 0.00 0.00 0.00 0.00 0.00 0.00 0.00 0.00 0.00 0.00 0.00 0.00 0.00 0.00 0.00 0.00 0.00 0.00 0.00 0.00 0.00 0.00 0.00 0.00 0.00 0.00 0.00 0.00 0.00 0.00 0.00 0.00 0.00 0.00 0.00 0.00
0.00 0.00 0.00 0.00 0.00 0.00 0.00 0.00 0.00 0.00 0.00 0.00 0.00 0.00 0.00 0.00 0.00 0.00 0.00 0.00 0.00 0.00 0.00 0.00 0.00 0.00 0.00 0.00 0.00 0.00 0.00 0.00 0.00 0.00 0.00 0.00 0.00 0.00 0.00 0.00 0.00 0.00 0.00 0.00 0.00
0.00 0.00 0.00 0.00 0.00 0.00 0.00 0.00 0.00 0.00 0.00 0.00 0.00 0.00 0.00 0.00 0.00 0.00 0.00 0.00 0.00 0.00 0.00 0.00 0.00 0.00 0.00 0.00 0.00 0.00 0.00 0.00 0.00 0.00 0.00 0.00 0.00 0.00 0.00 0.00 0.00 0.00 0.00 0.00 0.00
0.00 0.00 0.00 0.00 0.00 0.00 0.00 0.00 0.00 0.00 0.00 0.00 0.00 0.00 0.00 0.00 0.00 0.00 0.00 0.00 0.00 0.00 0.00 0.00 0.00 0.00 0.00 0.00 0.00 0.00 0.00 0.00 0.00 0.00 0.00 0.00 0.00 0.00 0.00 0.00 0.00 0.00 0.00 0.00 0.00
0.00 0.00 0.00 0.00 0.00 0.00 0.00 0.00 0.00 0.00 0.00 0.00 0.00 0.00 0.00 0.00 0.00 0.00 0.00 0.00 0.00 0.00 0.00 0.00 0.00 0.00 0.00 0.00 0.00 0.00 0.00 0.00 0.00 0.00 0.00 0.00 0.00 0.00 0.00 0.00 0.00 0.00 0.00 0.00 0.00
0.00 0.00 0.00 0.00 0.00 0.00 0.00 0.00 0.00 0.00 0.00 0.00 0.00 0.00 0.00 0.00 0.00 0.00 0.00 0.00 0.00 0.00 0.00 0.00 0.00 0.00 0.00 0.00 0.00 0.00 0.00 0.00 0.00 0.00 0.00 0.00 0.00 0.00 0.00 0.00 0.00 0.00 0.00 0.00 0.00
0.00 0.00 0.00 0.00 0.00 0.00 0.00 0.00 0.00 0.00 0.00 0.00 0.00 0.00 0.00 0.00 0.00 0.00 0.00 0.00 0.00 0.00 0.00 0.00 0.00 0.00 0.00 0.00 0.00 0.00 0.00 0.00 0.00 0.00 0.00 0.00 0.00 0.00 0.00 0.00 0.00 0.00 0.00 0.00 0.00
0.00 0.00 0.00 0.00 0.00 0.00 0.00 0.00 0.00 0.00 0.00 0.00 0.00 0.00 0.00 0.00 0.00 0.00 0.00 0.00 0.00 0.00 0.00 0.00 0.00 0.00 0.00 0.00 0.00 0.00 0.00 0.00 0.00 0.00 0.00 0.00 0.00 0.00 0.00 0.00 0.00 0.00 0.00 0.00 0.00
0.00 0.00 0.00 0.00 0.00 0.00 0.00 0.00 0.00 0.00 0.00 0.00 0.00 0.00 0.00 0.00 0.00 0.00 0.00 0.00 0.00 0.00 0.00 0.00 0.00 0.00 0.00 0.00 0.00 0.00 0.00 0.00 0.00 0.00 0.00 0.00 0.00 0.00 0.00 0.00 0.00 0.00 0.00 0.00 0.00
0.01 0.00 0.00 0.00 0.00 0.00 0.00 0.00 0.00 0.00 0.00 0.00 0.00 0.00 0.00 0.00 0.00 0.00 0.00 0.00 0.00 0.00 0.00 0.00 0.00 0.00 0.00 0.00 0.00 0.00 0.00 0.00 0.00 0.00 0.00 0.00 0.00 0.00 0.00 0.00 0.00 0.00 0.00 0.00 0.00
0.02 0.00 0.00 0.00 0.00 0.00 0.01 0.01 0.00 0.00 0.00 0.00 0.00 0.00 0.00 0.00 0.00 0.00 0.00 0.00 0.00 0.00 0.00 0.00 0.00 0.00 0.00 0.00 0.00 0.00 0.00 0.00 0.00 0.00 0.00 0.00 0.00 0.00 0.00 0.00 0.00 0.00 0.00 0.00 0.00
0.03 0.02 0.01 0.00 0.00 0.00 0.00 0.00 0.00 0.00 0.00 0.00 0.00 0.00 0.00 0.00 0.00 0.00 0.00 0.00 0.00 0.00 0.00 0.00 0.00 0.00 0.00 0.00 0.00 0.00 0.00 0.00 0.00 0.00 0.00 0.00 0.00 0.00 0.00 0.00 0.00 0.00 0.00 0.00 0.00
0.03 0.07 0.07 0.02 0.00 0.00 0.00 0.00 0.00 0.02 0.02 0.00 0.03 0.03 0.00 0.00 0.00 0.00 0.00 0.00 0.00 0.00 0.00 0.00 0.00 0.00 0.00 0.00 0.00 0.00 0.00 0.00 0.00 0.00 0.00 0.00 0.00 0.00 0.00 0.00 0.00 0.00 0.00 0.00 0.00
MSLP
1017.37 1016.86 1016.38 1015.91 1015.41 1014.92 1014.37 1013.91 1013.42 1013.00 1012.47 1011.90 1011.44 1010.89 1010.31 1009.92 1008.89 1007.93 1005.65 1003.36 1002.83 1003.48 1003.76 1003.18 1003.27 1002.27 1000.99 1001.20 1000.94 1003.42 1003.85 1000.51 998.70 997.41 998.29 998.89 999.38 999.74 1000.57 1001.62 1002.67 1003.52 1005.13 1006.19 1007.15
1017.37 1016.95 1016.43 1015.94 1015.43 1014.88 1014.36 1013.77 1013.29 1012.72 1012.33 1011.92 1011.31 1010.84 1010.25 1009.80 1008.14 1005.28 1002.74 1002.65 1002.69 1003.03 1003.18 1002.24 1001.65 1001.27 1000.36 1000.47 1000.87 1003.38 1004.55 1001.68 999.83 998.04 998.18 998.51 999.12 1000.00 1001.01 1001.98 1002.61 1003.75 1004.88 1006.14 1006.87
1017.45 1016.94 1016.44 1015.80 1015.21 1014.62 1014.17 1013.69 1013.13 1012.62 1012.03 1011.55 1011.20 1010.64 1010.20 1009.82 1006.75 1002.04 1001.63 1002.16 1002.59 1002.67 1002.21 1001.52 1000.78 1000.31 999.93 999.61 999.72 1002.68 1003.94 1001.42 998.40 998.46 998.00 998.31 998.79 999.84 1000.66 1001.76 1002.66 1003.75 1005.10 1006.28 1006.71
1017.68 1017.07 1016.44 1015.87 1015.21 1014.56 1013.88 1013.34 1012.88 1012.36 1011.84 1011.29 1010.90 1010.55 1009.96 1008.96 1004.85 1001.87 1002.02 1002.30 1002.55 1002.53 1002.20 1001.29 1000.29 999.80 999.29 998.95 998.33 1001.01 1000.73 999.21 997.93 997.23 997.56 997.62 998.40 999.44 1000.07 1000.86 1002.33 1003.62 1005.22 1006.22 1006.71
1017.85 1017.22 1016.55 1015.89 1015.17 1014.34 1013.62 1012.97 1012.44 1012.00 1011.47 1010.98 1010.61 1010.45 1009.23 1006.73 1002.81 1001.78 1002.12 1002.11 1002.43 1002.21 1001.36 1000.73 999.78 999.35 998.73 998.41 997.70 997.51 998.33 998.42 996.52 996.70 996.92 997.44 998.00 999.04 999.98 1000.79 1002.13 1003.53 1005.11 1006.02 1006.59
1017.88 1017.19 1016.41 1015.67 1015.05 1014.18 1013.30 1012.56 1011.87 1011.46 1010.97 1010.58 1010.26 1010.41 1008.78 1004.83 1000.79 1000.00 1001.20 1001.49 1001.03 1001.28 1000.61 1000.13 999.23 998.91 998.35 997.84 997.08 996.26 996.09 996.01 995.78 996.00 996.60 997.46 997.91 998.81 999.97 1000.72 1001.97 1003.43 1004.77 1005.64 1006.13
1017.72 1017.05 1016.36 1015.51 1014.83 1014.00 1012.94 1012.01 1011.33 1010.65 1010.32 1010.00 1009.74 1009.65 1006.46 1002.07 999.68 999.92 999.85 999.80 1000.24 1000.06 999.82 999.53 999.24 998.87 998.32 997.58 996.95 996.20 995.59 995.62 995.70 995.90 996.11 996.94 997.80 998.65 999.80 1000.74 1001.87 1003.16 1004.35 1005.10 1005.62
1017.60 1016.79 1015.90 1014.95 1014.15 1013.45 1012.52 1011.48 1010.55 1009.98 1009.51 1009.35 1009.31 1008.44 1004.00 999.87 999.37 999.72 999.01 999.20 999.16 998.94 999.09 999.01 998.96 998.89 998.37 997.89 997.11 996.26 995.57 995.02 994.82 995.41 996.07 997.29 997.81 998.47 999.67 1000.60 1001.64 1002.75 1003.72 1004.45 1005.08
1017.74 1016.88 1015.87 1014.79 1013.73 1012.64 1011.56 1010.39 1009.54 1009.01 1008.81 1008.79 1008.63 1006.62 1001.49 998.48 998.61 998.21 998.34 998.49 998.71 998.74 998.77 998.77 998.50 998.45 998.51 997.81 997.03 996.09 995.04 994.71 994.44 995.17 996.04 997.32 999.08 999.60 999.67 1000.39 1001.19 1002.11 1002.96 1003.71 1004.53
1017.71 1016.93 1016.02 1014.84 1013.70 1012.51 1011.09 1008.76 1007.87 1008.11 1008.11 1007.52 1006.30 1004.74 999.61 997.58 997.23 997.45 997.88 997.98 998.19 998.19 998.43 998.47 998.23 997.79 997.70 997.28 996.22 995.41 994.60 994.18 993.87 994.75 995.68 997.12 999.77 1000.95 1000.20 1000.04 1000.49 1001.31 1002.14 1002.96 1003.67
1017.54 1016.66 1015.67 1014.51 1013.25 1012.33 1011.21 1008.08 1007.19 1006.96 1005.82 1003.35 1001.43 1000.04 997.10 996.70 996.28 996.55 996.94 997.48 997.63 997.59 997.45 997.71 997.59 996.41 996.34 996.61 996.18 995.08 994.15 993.65 993.28 994.86 995.60 996.77 999.70 1000.91 1000.23 999.74 999.63 1000.25 1001.17 1002.01 1002.79
1017.23 1016.58 1015.53 1014.09 1012.76 1011.57 1011.07 1007.86 1005.42 1005.38 1003.06 1001.38 999.82 998.74 997.25 995.85 995.94 996.27 996.47 996.80 996.77 996.65 996.99 996.87 996.05 996.03 996.11 996.05 995.86 994.99 993.87 993.02 992.82 994.53 995.45 995.88 997.63 998.02 998.41 998.03 998.43 999.10 1000.09 1000.95 1001.81
1016.90 1016.30 1015.52 1013.97 1012.12 1010.47 1008.48 1006.54 1005.37 1004.93 1002.94 998.36 996.79 996.21 995.46 995.83 995.19 994.78 995.63 996.04 995.98 996.01 995.77 995.30 994.99 995.37 995.08 994.99 994.91 994.46 993.60 992.92 992.72 993.29 994.12 994.85 995.74 995.87 996.21 996.98 997.35 997.85 998.70 999.81 1000.67
1016.90 1016.19 1015.60 1014.57 1011.20 1010.05 1007.43 1005.77 1005.67 1004.96 1002.05 995.81 993.44 993.28 994.34 994.90 994.21 994.58 994.29 995.22 995.44 995.00 994.93 994.49 994.26 994.03 994.15 993.83 993.94 993.40 993.31 992.95 992.89 992.71 993.39 994.58 994.33 994.89 995.81 995.86 996.37 996.66 997.34 998.19 999.35
1016.73 1016.18 1015.72 1015.59 1013.74 1010.27 1006.85 1006.43 1005.91 1004.89 1000.13 991.75 991.09 991.04 991.91 992.63 991.60 992.49 993.73 994.10 994.21 994.17 994.17 993.25 993.21 992.69 992.65 992.72 992.93 992.60 992.80 992.69 992.61 992.59 992.98 994.68 994.86 994.39 994.57 994.86 995.19 995.70 996.29 996.85 997.65
1016.52 1015.89 1015.53 1013.32 1011.99 1009.41 1008.00 1006.70 1005.65 1003.61 996.85 991.61 990.77 991.16 991.28 991.39 991.75 991.21 992.58 993.54 993.99 993.88 993.27 992.72 992.27 992.05 991.62 992.27 992.44 992.74 992.67 992.42 992.38 992.35 992.47 993.41 994.19 993.51 993.47 994.07 994.82 994.32 995.15 995.70 996.33
1015.98 1015.34 1015.01 1014.18 1010.88 1008.48 1008.01 1006.66 1004.62 999.77 994.03 991.22 990.17 990.80 990.79 990.81 991.02 990.70 991.73 992.33 992.42 992.82 992.25 991.98 991.44 991.00 991.26 991.33 991.86 992.21 992.34 991.89 991.70 991.16 991.07 991.98 992.44 992.13 992.42 993.03 993.22 994.33 995.28 994.53 995.14
1015.42 1014.29 1012.10 1011.12 1009.76 1009.35 1008.55 1006.66 1001.88 996.06 994.48 990.48 989.70 989.84 990.22 990.35 990.31 990.11 990.47 991.07 991.64 991.93 991.71 991.13 990.39 990.56 990.29 990.52 990.69 991.25 991.34 990.89 990.84 990.62 990.87 990.78 989.80 989.99 991.45 992.39 993.07 993.48 994.14 992.89 993.86
1014.99 1011.97 1009.65 1007.65 1007.46 1008.21 1007.63 1004.14 998.50 996.78 994.01 992.31 991.09 989.60 989.11 989.45 989.26 989.44 989.22 989.58 989.82 990.38 990.50 990.00 989.47 989.39 989.71 989.98 990.49 990.32 990.47 991.09 991.11 990.79 990.15 989.23 988.99 989.03 989.96 991.00 991.66 992.88 992.10 991.94 992.57
1015.12 1012.12 1007.70 1006.34 1005.93 1007.08 1006.19 1001.71 998.98 997.76 995.82 994.05 992.27 990.59 989.38 988.39 988.60 988.02 987.78 988.31 988.72 989.18 989.96 989.37 988.97 988.55 988.80 989.77 989.46 989.51 990.31 990.68 990.58 989.96 988.97 988.76 988.25 988.02 988.76 990.00 993.08 991.09 991.44 991.33 991.59
1014.42 1010.11 1006.41 1005.71 1006.06 1006.04 1003.84 1001.76 1000.87 999.39 998.25 996.88 994.83 992.98 990.63 988.85 987.91 987.37 986.72 986.76 987.31 987.74 988.60 989.22 988.83 988.12 987.96 987.61 988.43 989.51 989.62 989.64 990.10 989.96 988.70 988.33 987.26 987.28 987.64 988.92 989.58 989.96 990.23 991.00 990.94
1013.30 1009.81 1005.40 1005.63 1005.55 1004.53 1003.05 1002.07 1001.76 999.91 998.81 996.98 995.72 994.13 992.47 990.68 988.66 986.93 985.99 985.69 985.90 986.46 986.87 987.86 988.51 987.80 986.94 987.20 987.99 988.51 988.69 989.34 989.16 988.94 988.67 988.14 986.59 986.66 987.19 987.61 988.34 988.78 989.32 989.68 990.05
1013.26 1009.70 1006.88 1005.56 1004.19 1003.56 1002.85 1001.57 1000.85 999.83 998.79 997.58 996.29 995.06 993.45 991.70 990.45 988.40 986.70 985.43 985.66 985.49 985.85 986.94 987.24 987.71 987.46 986.73 986.53 987.03 987.82 988.37 988.93 989.04 987.89 987.83 986.80 986.88 987.21 988.77 988.87 988.70 988.96 989.30 989.55
1014.00 1009.70 1006.25 1004.52 1004.01 1003.49 1003.28 1002.34 1001.18 1000.00 999.14 997.89 997.16 996.31 994.82 993.00 991.56 989.87 988.34 986.54 985.37 985.24 985.96 986.26 986.46 986.53 985.81 986.04 986.51 986.55 986.94 987.56 987.95 987.87 987.45 987.00 987.31 986.77 987.50 987.95 988.69 988.35 988.79 988.85 989.14
1014.15 1010.96 1008.65 1006.95 1005.05 1004.45 1004.83 1005.28 1003.75 1002.69 1000.74 999.80 998.67 998.45 997.86 996.13 993.46 991.77 990.41 988.59 986.55 984.98 985.51 986.09 986.13 986.10 986.52 986.53 986.23 985.87 986.16 986.92 987.17 987.07 987.07 986.62 986.59 986.89 986.63 987.50 987.88 988.29 988.69 988.89 989.23
1014.80 1012.22 1011.12 1009.42 1007.57 1006.09 1005.09 1005.02 1004.26 1003.55 1003.53 1002.33 1000.70 1000.52 1000.11 999.28 998.65 996.99 994.79 990.79 987.86 985.86 985.67 986.31 986.47 986.85 986.13 986.27 986.08 985.56 985.47 985.55 985.81 986.37 986.42 986.66 986.29 986.49 986.61 986.73 987.26 988.20 988.99 988.81 989.14
1014.07 1013.76 1013.61 1011.20 1009.09 1007.26 1005.69 1004.96 1005.76 1004.94 1004.92 1003.56 1002.17 1002.55 1002.03 1001.31 1000.67 999.15 996.87 993.29 990.48 987.58 986.33 986.45 986.68 987.26 986.33 986.33 985.98 985.34 984.51 984.74 985.19 985.78 986.20 986.33 986.03 986.57 986.53 986.78 987.31 987.46 987.81 988.25 988.29
Thickness
5741 5744 5747 5749 5752 5755 5759 5762 5766 5769 5773 5778 5782 5787 5792 5796 5804 5813 5820 5844 5853 5852 5852 5854 5851 5857 5870 5854 5860 5822 5785 5821 5842 5854 5841 5861 5845 5860 5860 5839 5838 5835 5820 5822 5823
5739 5742 5745 5748 5751 5754 5757 5761 5764 5769 5773 5776 5780 5785 5791 5795 5809 5824 5854 5856 5857 5855 5848 5847 5846 5856 5852 5853 5854 5803 5774 5814 5837 5867 5853 5860 5853 5848 5837 5830 5828 5825 5830 5826 5824
5739 5741 5744 5748 5751 5754 5757 5761 5765 5768 5772 5776 5780 5784 5789 5792 5812 5846 5864 5860 5857 5858 5858 5860 5862 5857 5846 5860 5859 5807 5779 5829 5858 5864 5870 5860 5854 5857 5836 5819 5827 5817 5816 5818 5820
5736 5739 5743 5747 5751 5755 5759 5762 5765 5769 5772 5776 5779 5782 5787 5796 5794 5853 5860 5858 5857 5859 5852 5851 5854 5843 5841 5842 5871 5815 5840 5854 5870 5885 5875 5864 5865 5848 5848 5841 5845 5836 5826 5819 5815
5733 5737 5741 5745 5750 5756 5760 5764 5768 5770 5774 5777 5780 5781 5793 5801 5822 5858 5857 5858 5856 5853 5849 5846 5846 5846 5837 5852 5867 5863 5852 5865 5896 5887 5883 5880 5861 5851 5847 5855 5852 5841 5826 5818 5817
5731 5736 5741 5746 5750 5756 5761 5766 5771 5773 5776 5779 5781 5779 5790 5793 5861 5872 5863 5858 5859 5851 5851 5854 5854 5861 5852 5855 5859 5886 5889 5888 5898 5890 5886 5867 5862 5859 5853 5859 5847 5836 5823 5821 5820
5730 5734 5739 5745 5750 5755 5763 5769 5773 5778 5780 5781 5783 5784 5802 5821 5866 5869 5867 5863 5864 5859 5849 5862 5865 5851 5857 5849 5874 5880 5872 5881 5882 5885 5879 5884 5850 5847 5858 5856 5842 5834 5827 5824 5825
5727 5733 5739 5746 5752 5757 5764 5772 5778 5782 5784 5784 5784 5789 5804 5862 5869 5860 5868 5860 5870 5872 5865 5870 5868 5854 5849 5864 5858 5855 5868 5849 5881 5883 5883 5873 5833 5859 5863 5851 5839 5836 5831 5828 5828
5722 5728 5736 5744 5751 5760 5769 5778 5784 5787 5787 5786 5786 5795 5814 5872 5853 5868 5868 5851 5858 5863 5866 5868 5861 5844 5845 5829 5827 5845 5834 5849 5866 5887 5875 5864 5819 5848 5864 5852 5841 5839 5836 5834 5831
5717 5722 5730 5740 5748 5757 5768 5786 5793 5790 5790 5793 5800 5794 5837 5840 5862 5866 5869 5862 5848 5850 5843 5843 5840 5830 5830 5822 5798 5824 5842 5859 5862 5878 5876 5854 5822 5831 5852 5853 5848 5845 5843 5840 5836
5713 5719 5727 5736 5746 5753 5762 5787 5797 5792 5794 5809 5822 5826 5851 5863 5876 5861 5867 5853 5850 5840 5818 5834 5814 5813 5830 5837 5845 5852 5861 5859 5880 5872 5869 5854 5814 5810 5836 5850 5854 5852 5848 5845 5843
5709 5714 5720 5732 5744 5753 5756 5778 5793 5791 5794 5821 5830 5837 5851 5866 5840 5849 5865 5835 5832 5816 5827 5820 5809 5839 5848 5847 5843 5846 5851 5867 5889 5874 5865 5866 5839 5849 5854 5866 5866 5860 5854 5852 5851
5703 5708 5713 5724 5741 5756 5770 5778 5794 5792 5778 5826 5843 5843 5851 5853 5840 5846 5854 5840 5828 5818 5823 5815 5833 5848 5843 5840 5835 5843 5845 5861 5869 5880 5880 5872 5854 5866 5875 5874 5876 5874 5871 5864 5857
5695 5699 5705 5712 5742 5748 5761 5783 5783 5785 5758 5821 5846 5855 5855 5850 5837 5860 5865 5843 5827 5820 5827 5827 5847 5841 5835 5834 5845 5830 5868 5868 5869 5866 5831 5869 5830 5857 5863 5864 5871 5876 5876 5874 5868
5684 5687 5693 5694 5706 5730 5759 5767 5770 5767 5732 5853 5854 5885 5869 5846 5862 5855 5866 5846 5823 5826 5828 5825 5833 5838 5832 5839 5856 5846 5873 5867 5870 5863 5856 5835 5821 5847 5872 5858 5865 5876 5881 5884 5883
5672 5676 5680 5695 5708 5725 5739 5752 5753 5729 5738 5827 5846 5837 5837 5847 5844 5859 5847 5852 5845 5825 5834 5835 5860 5852 5852 5854 5857 5867 5858 5864 5868 5862 5819 5842 5826 5839 5853 5855 5866 5884 5887 5890 5891
5660 5665 5668 5672 5695 5719 5724 5726 5715 5728 5814 5815 5825 5829 5827 5824 5829 5839 5826 5819 5812 5795 5802 5829 5835 5858 5861 5840 5852 5849 5836 5813 5810 5821 5819 5865 5835 5849 5877 5882 5887 5876 5867 5894 5899
5645 5654 5670 5679 5687 5693 5695 5694 5703 5776 5778 5837 5834 5826 5806 5819 5822 5828 5821 5808 5823 5817 5806 5799 5798 5835 5857 5844 5835 5834 5837 5815 5783 5806 5826 5870 5845 5863 5891 5891 5884 5879 5877 5902 5899
5628 5651 5668 5685 5686 5679 5672 5683 5733 5752 5789 5793 5807 5805 5808 5813 5818 5816 5815 5814 5826 5829 5801 5806 5809 5855 5853 5856 5849 5835 5819 5853 5830 5846 5837 5860 5877 5901 5901 5893 5883 5880 5899 5907 5899
5601 5621 5651 5669 5672 5656 5651 5684 5718 5739 5756 5765 5759 5791 5787 5809 5800 5811 5813 5827 5822 5834 5836 5824 5803 5843 5851 5851 5854 5843 5856 5815 5825 5794 5800 5841 5852 5861 5882 5868 5853 5886 5892 5908 5914
5575 5605 5633 5644 5639 5626 5636 5665 5676 5702 5712 5710 5718 5735 5766 5791 5810 5806 5815 5831 5832 5831 5835 5824 5815 5823 5845 5828 5826 5823 5818 5829 5838 5831 5815 5812 5843 5906 5900 5891 5885 5893 5901 5902 5915
5548 5565 5607 5608 5595 5608 5620 5641 5648 5669 5686 5696 5706 5722 5735 5756 5774 5803 5811 5826 5849 5837 5814 5826 5811 5797 5821 5850 5852 5840 5829 5827 5803 5806 5831 5835 5849 5919 5915 5914 5907 5903 5906 5912 5917
5511 5539 5569 5568 5567 5583 5602 5619 5632 5643 5655 5668 5677 5699 5721 5731 5733 5765 5792 5840 5840 5836 5819 5825 5799 5780 5792 5828 5846 5827 5832 5833 5830 5833 5819 5814 5832 5905 5903 5888 5887 5896 5902 5908 5911
5478 5513 5545 5559 5563 5560 5565 5577 5590 5620 5625 5647 5651 5666 5685 5701 5730 5740 5760 5798 5832 5834 5822 5829 5810 5789 5787 5802 5830 5818 5826 5830 5826 5807 5818 5829 5842 5874 5884 5879 5884 5891 5900 5908 5908
5457 5485 5503 5507 5532 5538 5530 5521 5541 5558 5588 5595 5605 5619 5625 5639 5692 5713 5740 5763 5794 5823 5816 5809 5779 5800 5805 5817 5829 5829 5827 5823 5812 5821 5812 5833 5843 5862 5882 5884 5884 5894 5894 5896 5899
5432 5459 5470 5483 5498 5512 5520 5522 5526 5540 5535 5548 5564 5581 5586 5599 5605 5626 5659 5718 5755 5796 5793 5797 5766 5784 5791 5810 5813 5816 5831 5833 5827 5822 5825 5833 5838 5877 5888 5898 5891 5873 5881 5883 5892
5432 5433 5425 5456 5476 5491 5508 5513 5496 5510 5514 5532 5543 5542 5552 5563 5581 5608 5635 5678 5712 5746 5769 5769 5768 5762 5758 5793 5803 5789 5814 5827 5831 5832 5826 5809 5835 5863 5864 5871 5876 5883 5886 5883 5889